CW6538 Cattolica IT current weather conditions

sailwx.info

Wind from 021 at 6 knots gusting 10

Air temperature 23.9° C
Dewpoint 6.6° C

Last reported at 2018-Apr-21 13:03 UTC.
Time now 2018-Apr-21 13:22 UTC

Location: N 43°58' E 012°44'.
View on Google Maps.

See reports from other nearby stations

  
Tides and Currents Weather Stations Pressure Air Temp Water Temp Dewpoint Dewpoint Depression Visibility Wind Speed Wind Dir Waves Ship Positions
date/time (UTC)wind fromknots sea level pressurealtimeterstation pressurevisibilityair tempwater tempwave heightnotes
2018-Apr-21 13:08 059 6 gusting 10 23.3
2018-Apr-21 13:03 021 6 gusting 10 23.9
2018-Apr-21 12:58 068 4 gusting 9 23.9
2018-Apr-21 12:53 057 6 gusting 11 23.9
2018-Apr-21 12:49 046 6 gusting 11 23.3
2018-Apr-21 12:44 049 6 gusting 10 22.8
2018-Apr-21 12:39 082 6 gusting 11 22.8
2018-Apr-21 12:28 064 7 gusting 11 23.3
2018-Apr-21 12:23 053 6 gusting 12 23.3
2018-Apr-21 12:18 064 7 gusting 12 23.3
2018-Apr-21 12:14 013 6 gusting 12 23.3
2018-Apr-21 12:09 051 6 gusting 12 22.8
2018-Apr-21 12:04 032 7 gusting 12 22.8
2018-Apr-21 11:59 053 7 gusting 13 22.8
2018-Apr-21 11:53 012 6 gusting 13 22.8
2018-Apr-21 11:49 050 6 gusting 12 22.8
2018-Apr-21 11:44 048 5 gusting 12 22.8
2018-Apr-21 11:39 016 7 gusting 12 22.2
2018-Apr-21 11:33 029 7 gusting 12 22.8
2018-Apr-21 11:28 028 7 gusting 11 22.8
2018-Apr-21 11:24 069 6 gusting 12 22.8
2018-Apr-21 11:19 071 8 gusting 12 22.8
2018-Apr-21 11:13 042 7 gusting 12 22.8
2018-Apr-21 11:08 338 6 gusting 11 22.8
2018-Apr-21 11:03 024 6 gusting 11 22.8
2018-Apr-21 10:58 024 6 gusting 11 22.8
2018-Apr-21 10:53 022 7 gusting 12 22.8
2018-Apr-21 10:48 024 6 gusting 12 22.8
2018-Apr-21 10:43 049 6 gusting 11 22.8
2018-Apr-21 10:39 039 6 gusting 11 22.8
2018-Apr-21 10:34 039 6 gusting 11 22.8
2018-Apr-21 10:29 052 6 gusting 10 22.8
2018-Apr-21 10:24 331 6 gusting 10 22.8
2018-Apr-21 10:18 015 6 gusting 10 22.8
2018-Apr-21 10:13 051 5 gusting 10 23.3
2018-Apr-21 10:08 061 5 gusting 10 23.3
2018-Apr-21 10:03 042 6 gusting 10 23.3
2018-Apr-21 09:58 057 4 gusting 8 23.3
2018-Apr-21 09:53 045 5 gusting 8 23.3
2018-Apr-21 09:49 041 5 gusting 8 23.3
2018-Apr-21 09:44 043 5 gusting 7 22.8
2018-Apr-21 09:39 009 4 gusting 8 22.8
2018-Apr-21 09:34 053 4 gusting 8 22.8
2018-Apr-21 09:29 360 4 gusting 7 22.8
2018-Apr-21 09:24 036 3 gusting 6 22.8
2018-Apr-21 09:19 053 3 gusting 7 22.8
2018-Apr-21 09:13 005 3 gusting 7 22.8
2018-Apr-21 09:08 024 3 gusting 7 22.8
2018-Apr-21 09:03 030 5 gusting 7 22.8
2018-Apr-21 08:58 016 5 gusting 7 22.8
2018-Apr-21 08:53 059 3 gusting 6 22.2
2018-Apr-21 08:44 024 4 gusting 7 22.2
2018-Apr-21 08:39 019 3 gusting 6 21.7
2018-Apr-21 08:34 022 4 gusting 5 21.7
2018-Apr-21 08:29 033 3 gusting 5 21.1
2018-Apr-21 08:24 049 2 gusting 4 20.6
2018-Apr-21 08:18 009 2 gusting 4 20.6
2018-Apr-21 08:13 005 3 gusting 5 20.6
2018-Apr-21 08:08 011 1 gusting 5 20.0
2018-Apr-21 08:03 009 3 gusting 6 20.0
2018-Apr-21 07:59 324 3 gusting 6 20.0
2018-Apr-21 07:54 338 2 gusting 4 20.0
2018-Apr-21 07:49 339 1 gusting 6 19.4
2018-Apr-21 07:44 301 3 gusting 6 19.4
2018-Apr-21 07:38 345 2 gusting 5 19.4
2018-Apr-21 07:33 342 1 gusting 6 18.9
2018-Apr-21 07:28 293 2 gusting 6 18.9
2018-Apr-21 07:24 340 1 18.3
2018-Apr-21 07:19 355 0 gusting 2 18.3
2018-Apr-21 07:14 250 17.8
2018-Apr-21 07:08 246 17.8
2018-Apr-21 07:03 184 17.2
2018-Apr-21 06:59 184 16.7
2018-Apr-21 06:54 184 16.1
2018-Apr-21 06:49 184 16.1
2018-Apr-21 06:43 184 15.6
2018-Apr-21 06:38 184 0 gusting 2 15.0
2018-Apr-21 06:33 184 15.0
2018-Apr-21 06:29 184 0 gusting 2 14.4
2018-Apr-21 06:24 184 13.9
2018-Apr-21 06:13 172 2 gusting 3 13.3
2018-Apr-21 06:08 172 1 gusting 4 12.8
2018-Apr-21 06:03 171 3 gusting 4 12.8
2018-Apr-21 05:58 166 4 gusting 5 12.2
2018-Apr-21 05:53 185 2 gusting 3 12.2
2018-Apr-21 05:49 186 2 gusting 3 12.2
2018-Apr-21 05:44 186 2 gusting 3 11.7
2018-Apr-21 05:38 198 0 gusting 3 11.7
2018-Apr-21 05:33 198 1 gusting 3 11.7
2018-Apr-21 05:28 198 284 gusting 284 11.1
2018-Apr-21 05:23 198 1 gusting 3 11.1
2018-Apr-21 05:18 198 1 gusting 4 11.1
2018-Apr-21 05:13 180 2 gusting 4 11.1
2018-Apr-21 05:04 175 3 gusting 4 11.1
2018-Apr-21 04:59 178 2 gusting 3 11.1
2018-Apr-21 04:54 188 1 gusting 4 11.1
2018-Apr-21 04:49 188 1 gusting 4 11.1
2018-Apr-21 04:43 194 2 gusting 3 11.1
2018-Apr-21 04:38 217 1 gusting 3 11.1
2018-Apr-21 04:33 215 2 gusting 3 11.1
2018-Apr-21 04:28 215 1 gusting 3 11.1
2018-Apr-21 04:23 215 1 gusting 3 11.1
2018-Apr-21 04:18 185 2 gusting 3 11.1
2018-Apr-21 04:13 185 1 gusting 3 11.1
2018-Apr-21 04:09 185 2 gusting 3 11.1
2018-Apr-21 04:04 185 2 gusting 3 11.1
2018-Apr-21 03:59 185 1 gusting 3 11.1
2018-Apr-21 03:54 184 2 gusting 4 11.1
2018-Apr-21 03:49 185 2 gusting 4 11.1
2018-Apr-21 03:44 185 2 gusting 4 11.1
2018-Apr-21 03:39 184 2 gusting 4 11.1
2018-Apr-21 03:33 169 2 gusting 4 11.7
2018-Apr-21 03:28 194 3 gusting 4 11.7
2018-Apr-21 03:23 194 3 gusting 4 11.7
2018-Apr-21 03:18 169 2 gusting 4 11.7
2018-Apr-21 03:13 169 2 gusting 4 11.7
2018-Apr-21 03:08 184 1 gusting 3 11.7
2018-Apr-21 03:03 184 1 gusting 3 11.7
2018-Apr-21 02:58 184 2 gusting 3 11.7
2018-Apr-21 02:54 184 2 gusting 3 11.7
2018-Apr-21 02:49 184 1 gusting 4 11.7
2018-Apr-21 02:44 184 2 gusting 4 11.7
2018-Apr-21 02:39 184 2 gusting 4 11.7
2018-Apr-21 02:33 184 3 gusting 4 12.2
2018-Apr-21 02:28 184 2 gusting 4 12.2
2018-Apr-21 02:23 184 2 gusting 4 12.2
2018-Apr-21 02:18 186 2 gusting 4 12.2
2018-Apr-21 02:13 192 2 gusting 4 12.2
2018-Apr-21 02:08 209 1 gusting 6 12.2
2018-Apr-21 02:03 189 3 gusting 6 12.2
2018-Apr-21 01:58 191 3 gusting 4 12.2
2018-Apr-21 01:53 193 2 gusting 4 12.2
2018-Apr-21 01:49 194 3 gusting 4 12.2
2018-Apr-21 01:44 178 1 gusting 3 12.2
2018-Apr-21 01:39 178 2 gusting 4 12.2
2018-Apr-21 01:34 180 2 gusting 4 12.2
2018-Apr-21 01:29 169 3 gusting 4 12.2
2018-Apr-21 01:24 186 3 gusting 4 12.2
2018-Apr-21 01:18 186 2 gusting 5 12.2
2018-Apr-21 01:13 192 2 gusting 5 12.2
2018-Apr-21 01:08 184 3 gusting 5 12.2
2018-Apr-21 01:03 191 3 gusting 5 12.2
2018-Apr-21 00:58 178 4 gusting 5 12.8
2018-Apr-21 00:53 178 4 gusting 6 12.8
2018-Apr-21 00:48 165 4 gusting 6 12.8
2018-Apr-21 00:43 183 2 gusting 5 12.8
2018-Apr-21 00:39 184 3 gusting 5 12.8
2018-Apr-21 00:34 200 4 gusting 5 12.8
2018-Apr-21 00:29 191 4 gusting 5 12.8
2018-Apr-21 00:23 182 3 gusting 5 12.8
2018-Apr-21 00:18 169 3 gusting 6 12.8
2018-Apr-21 00:14 178 4 gusting 6 13.3
2018-Apr-21 00:09 183 1 gusting 4 13.3
2018-Apr-21 00:03 183 2 gusting 4 13.3
2018-Apr-20 23:53 201 2 gusting 4 13.3
2018-Apr-20 23:48 182 2 gusting 4 13.9
2018-Apr-20 23:43 193 2 gusting 6 13.9
2018-Apr-20 23:38 212 2 gusting 6 13.9
2018-Apr-20 23:33 200 4 gusting 6 13.3
2018-Apr-20 23:28 207 3 gusting 6 13.3
2018-Apr-20 23:24 206 2 gusting 4 13.3
2018-Apr-20 23:19 202 3 gusting 4 13.3
2018-Apr-20 23:14 195 2 gusting 4 13.3
2018-Apr-20 23:09 191 3 gusting 4 13.3
2018-Apr-20 23:04 184 2 gusting 4 13.3
2018-Apr-20 22:59 186 2 gusting 5 13.3
2018-Apr-20 22:54 186 3 gusting 5 13.3
2018-Apr-20 22:49 171 4 gusting 5 13.3
2018-Apr-20 22:44 190 3 gusting 5 13.3
2018-Apr-20 22:39 175 4 gusting 5 13.9
2018-Apr-20 22:33 178 3 13.9
2018-Apr-20 22:28 170 4 gusting 6 13.9
2018-Apr-20 22:23 169 2 gusting 4 13.9
2018-Apr-20 22:18 188 2 gusting 4 13.9
2018-Apr-20 22:13 174 4 gusting 6 13.9
2018-Apr-20 22:08 169 5 gusting 6 13.9
2018-Apr-20 22:03 190 2 gusting 4 13.9
2018-Apr-20 21:58 182 3 gusting 4 13.9
2018-Apr-20 21:54 189 2 gusting 5 13.9
2018-Apr-20 21:49 202 2 gusting 6 13.9
2018-Apr-20 21:44 183 5 gusting 6 14.4
2018-Apr-20 21:39 175 2 gusting 6 14.4
2018-Apr-20 21:33 175 5 gusting 6 14.4
2018-Apr-20 21:28 171 4 gusting 5 14.4
2018-Apr-20 21:23 168 3 gusting 5 14.4
2018-Apr-20 21:19 168 2 gusting 4 15.0
2018-Apr-20 21:14 165 2 gusting 6 14.4
2018-Apr-20 21:09 161 4 gusting 6 15.0
2018-Apr-20 21:04 173 2 gusting 4 15.0
2018-Apr-20 20:59 198 1 gusting 5 15.0
2018-Apr-20 20:54 173 4 gusting 5 15.0
2018-Apr-20 20:48 180 2 gusting 5 15.6
2018-Apr-20 20:43 174 2 gusting 5 15.6
2018-Apr-20 20:38 176 2 gusting 3 15.6
2018-Apr-20 20:33 176 1 gusting 4 16.1
2018-Apr-20 20:29 177 1 gusting 4 16.1
2018-Apr-20 20:24 188 1 gusting 2 16.1
2018-Apr-20 20:19 188 1 gusting 4 16.1
2018-Apr-20 20:14 188 2 gusting 4 16.7
2018-Apr-20 20:09 172 1 gusting 3 16.7
2018-Apr-20 20:04 172 1 gusting 3 16.7
2018-Apr-20 19:59 172 1 gusting 2 16.7
2018-Apr-20 19:53 172 0 gusting 2 17.2
2018-Apr-20 19:48 172 2 gusting 3 17.2
2018-Apr-20 19:43 172 1 gusting 3 17.2
2018-Apr-20 19:39 172 2 gusting 4 17.2
2018-Apr-20 19:34 172 1 gusting 4 17.8
2018-Apr-20 19:29 172 17.8
2018-Apr-20 19:24 172 18.3
2018-Apr-20 19:19 172 18.3
2018-Apr-20 19:13 172 1 gusting 2 18.3
2018-Apr-20 19:08 172 18.3
2018-Apr-20 19:03 172 1 gusting 3 18.9
2018-Apr-20 18:58 172 1 gusting 3 18.9
2018-Apr-20 18:53 355 2 gusting 3 19.4
2018-Apr-20 18:49 355 20.0
2018-Apr-20 18:44 355 20.6
2018-Apr-20 18:39 355 20.6
2018-Apr-20 18:34 355 21.1
2018-Apr-20 18:28 355 21.7
2018-Apr-20 18:23 355 21.7
2018-Apr-20 18:18 355 22.2
2018-Apr-20 18:14 355 22.2
2018-Apr-20 18:09 355 22.2
2018-Apr-20 18:04 355 22.8
2018-Apr-20 17:59 355 22.8
2018-Apr-20 17:54 355 22.8
2018-Apr-20 17:49 355 22.8
2018-Apr-20 17:43 355 23.3
2018-Apr-20 17:38 355 23.3
2018-Apr-20 17:33 355 1 gusting 2 23.3
2018-Apr-20 17:28 355 23.9
2018-Apr-20 17:23 355 23.9
2018-Apr-20 17:18 355 23.9
2018-Apr-20 17:14 355 23.9
2018-Apr-20 17:09 355 23.9
2018-Apr-20 17:04 355 23.9
2018-Apr-20 16:59 355 23.9
2018-Apr-20 16:54 355 0 gusting 3 23.9
2018-Apr-20 16:49 355 1 gusting 3 23.9
2018-Apr-20 16:44 355 0 gusting 2 24.4
2018-Apr-20 16:34 355 0 gusting 3 24.4
2018-Apr-20 16:28 355 1 gusting 3 25.0
2018-Apr-20 16:23 345 2 gusting 3 24.4
2018-Apr-20 16:18 346 24.4
2018-Apr-20 16:13 340 0 gusting 2 23.9
2018-Apr-20 16:08 340 0 gusting 3 23.9
2018-Apr-20 16:03 340 1 gusting 3 23.9
2018-Apr-20 15:58 342 2 gusting 3 23.9
2018-Apr-20 15:54 336 1 gusting 3 23.9
2018-Apr-20 15:49 336 2 gusting 4 23.9
2018-Apr-20 15:44 337 2 gusting 5 23.9
2018-Apr-20 15:39 321 3 gusting 5 23.9
2018-Apr-20 15:34 360 3 gusting 4 24.4
2018-Apr-20 15:29 346 2 gusting 4 24.4
2018-Apr-20 15:23 346 2 gusting 4 24.4
2018-Apr-20 15:18 016 2 gusting 3 24.4
2018-Apr-20 15:13 336 2 gusting 3 24.4
2018-Apr-20 15:08 011 0 gusting 4 24.4
2018-Apr-20 15:03 360 3 gusting 5 24.4
2018-Apr-20 14:58 005 3 gusting 6 24.4
2018-Apr-20 14:54 016 3 gusting 6 23.9
2018-Apr-20 14:49 037 3 gusting 6 23.9
2018-Apr-20 14:44 005 1 gusting 4 23.9
2018-Apr-20 14:39 005 2 gusting 6 23.9
2018-Apr-20 14:33 026 3 gusting 7 23.9
2018-Apr-20 14:28 360 2 gusting 7 23.9
2018-Apr-20 14:23 031 4 gusting 6 23.9
2018-Apr-20 14:18 034 3 gusting 6 23.9
2018-Apr-20 14:13 032 3 gusting 5 23.3
2018-Apr-20 14:09 347 4 gusting 6 23.3
2018-Apr-20 14:04 360 3 gusting 6 23.3
2018-Apr-20 13:59 355 4 gusting 7 23.3
2018-Apr-20 13:54 048 3 gusting 7 23.3
2018-Apr-20 13:49 058 2 gusting 8 22.8
2018-Apr-20 13:43 005 4 gusting 8 22.8
2018-Apr-20 13:38 336 5 gusting 8 22.8
2018-Apr-20 13:33 355 3 gusting 9 23.3
2018-Apr-20 13:28 360 6 gusting 9 23.3
2018-Apr-20 13:24 355 6 gusting 9 23.3
2018-Apr-20 13:19 360 6 gusting 9 23.3
2018-Apr-20 13:14 056 6 gusting 9 23.3
2018-Apr-20 13:08 035 7 gusting 9 23.9
2018-Apr-20 12:58 332 5 gusting 7 23.9
2018-Apr-20 12:54 344 4 gusting 6 23.9
2018-Apr-20 12:49 005 3 gusting 6 23.9
2018-Apr-20 12:43 340 4 gusting 6 23.3
2018-Apr-20 12:38 013 4 gusting 6 23.3
2018-Apr-20 12:33 323 4 gusting 6 23.3
2018-Apr-20 12:29 355 2 gusting 5 23.3
2018-Apr-20 12:24 344 1 gusting 6 23.3
2018-Apr-20 12:19 016 2 gusting 8 22.8
2018-Apr-20 12:14 342 5 gusting 8 22.2
2018-Apr-20 12:08 337 5 gusting 7 21.7
2018-Apr-20 12:03 338 4 gusting 8 21.7
2018-Apr-20 11:58 346 6 gusting 8 21.7
2018-Apr-20 11:53 346 6 gusting 8 21.7
2018-Apr-20 11:49 360 5 gusting 8 21.7
2018-Apr-20 11:44 013 3 gusting 9 21.7
2018-Apr-20 11:39 360 6 gusting 9 22.2
2018-Apr-20 11:34 300 4 gusting 8 22.2
2018-Apr-20 11:29 005 3 gusting 8 22.8
2018-Apr-20 11:24 005 5 gusting 8 22.2
2018-Apr-20 11:18 340 3 gusting 8 22.2
2018-Apr-20 11:13 271 5 gusting 9 22.2
2018-Apr-20 11:08 308 6 gusting 9 22.2
2018-Apr-20 11:03 019 5 gusting 10 22.2
2018-Apr-20 10:58 340 5 gusting 9 21.7
2018-Apr-20 10:53 347 6 gusting 11 21.1
2018-Apr-20 10:48 348 5 gusting 11 21.1
2018-Apr-20 10:44 011 5 gusting 12 21.1
2018-Apr-20 10:39 309 6 gusting 12 21.7
2018-Apr-20 10:34 348 6 gusting 12 21.7
2018-Apr-20 10:28 332 6 gusting 10 21.7
2018-Apr-20 10:23 010 6 gusting 11 21.7
2018-Apr-20 10:18 022 6 gusting 11 21.7
2018-Apr-20 10:14 036 5 gusting 9 21.7
2018-Apr-20 10:09 349 5 21.7
2018-Apr-20 10:04 009 4 gusting 9 21.1
2018-Apr-20 09:58 304 5 gusting 9 21.1
2018-Apr-20 09:53 015 4 gusting 9 21.1
2018-Apr-20 09:48 355 4 gusting 8 20.6
2018-Apr-20 09:43 340 4 gusting 12 20.6
2018-Apr-20 09:39 326 6 gusting 12 20.6
2018-Apr-20 09:34 340 4 gusting 11 21.1
2018-Apr-20 09:29 030 4 gusting 11 20.6
2018-Apr-20 09:23 350 6 gusting 11 21.1
2018-Apr-20 09:13 331 6 gusting 12 21.1
2018-Apr-20 09:08 009 5 gusting 13 20.6
2018-Apr-20 09:03 333 6 gusting 13 20.6
2018-Apr-20 08:59 355 7 gusting 11 20.6
2018-Apr-20 08:54 319 5 gusting 10 20.0
2018-Apr-20 08:49 346 2 gusting 10 20.0
2018-Apr-20 08:44 329 6 gusting 10 20.0
2018-Apr-20 08:39 355 6 gusting 11 20.0
2018-Apr-20 08:33 020 284 gusting 284 20.0
2018-Apr-20 08:29 318 6 gusting 9 20.0
2018-Apr-20 08:23 348 4 gusting 9 19.4
2018-Apr-20 08:18 331 4 gusting 12 19.4
2018-Apr-20 08:13 331 6 gusting 12 19.4
2018-Apr-20 08:04 355 284 gusting 284 19.4
2018-Apr-20 07:53 288 4 gusting 11 18.9
2018-Apr-20 07:38 328 6 gusting 12 18.9
2018-Apr-20 07:33 329 6 gusting 10 18.9
2018-Apr-20 07:28 291 6 gusting 12 18.9
2018-Apr-20 07:14 337 5 gusting 11 18.9
2018-Apr-20 07:09 312 6 gusting 13 18.9
2018-Apr-20 07:04 323 7 gusting 13 18.3
2018-Apr-20 06:59 303 6 gusting 12 18.3
2018-Apr-20 06:54 332 5 gusting 9 18.3
2018-Apr-20 06:49 288 4 gusting 10 18.3
2018-Apr-20 06:43 292 6 gusting 11 17.8
2018-Apr-20 06:33 288 5 gusting 10 17.8
2018-Apr-20 06:23 266 4 gusting 9 16.7
2018-Apr-20 06:18 337 4 gusting 11 16.7
2018-Apr-20 06:13 286 6 gusting 11 15.6
2018-Apr-20 06:09 292 0 gusting 7 15.0
2018-Apr-20 05:59 311 2 gusting 8 12.8
2018-Apr-20 05:54 318 12.8
2018-Apr-20 05:49 254 12.2
2018-Apr-20 05:44 178 12.2
2018-Apr-20 05:39 178 11.7
2018-Apr-20 05:34 178 11.7
2018-Apr-20 05:29 178 11.1
2018-Apr-20 05:23 178 11.1
2018-Apr-20 05:18 178 1 gusting 3 11.1
2018-Apr-20 05:13 178 2 gusting 2 11.1
2018-Apr-20 05:08 178 10.6
2018-Apr-20 05:03 178 10.6
2018-Apr-20 04:58 178 10.6
2018-Apr-20 04:54 178 10.6
2018-Apr-20 04:49 178 0 gusting 4 10.6
2018-Apr-20 04:44 178 2 gusting 4 10.6
2018-Apr-20 04:39 178 2 gusting 3 10.6
2018-Apr-20 04:33 178 10.6
2018-Apr-20 04:28 178 0 gusting 3 10.6
2018-Apr-20 04:23 178 1 gusting 4 10.6
2018-Apr-20 04:18 178 3 gusting 4 10.6
2018-Apr-20 04:13 196 3 gusting 4 10.6
2018-Apr-20 04:09 196 1 gusting 2 10.6
2018-Apr-20 04:03 196 10.6
2018-Apr-20 03:58 196 10.6
2018-Apr-20 03:53 196 1 gusting 3 10.6
2018-Apr-20 03:49 196 2 gusting 3 10.6
2018-Apr-20 03:44 196 2 gusting 3 10.6
2018-Apr-20 03:39 196 0 gusting 2 10.6
2018-Apr-20 03:34 196 0 gusting 3 10.6
2018-Apr-20 03:29 196 1 gusting 3 10.6
2018-Apr-20 03:24 196 1 gusting 2 10.6
2018-Apr-20 03:18 196 1 gusting 2 10.6
2018-Apr-20 03:13 196 1 gusting 2 10.6
2018-Apr-20 03:08 196 1 gusting 2 10.6
2018-Apr-20 03:03 196 1 gusting 2 11.1
2018-Apr-20 02:58 196 1 gusting 2 11.1
2018-Apr-20 02:53 196 1 gusting 3 11.1
2018-Apr-20 02:48 196 2 gusting 3 11.1
2018-Apr-20 02:43 196 1 gusting 3 11.1
2018-Apr-20 02:38 196 1 gusting 2 11.1
2018-Apr-20 02:34 196 1 gusting 2 11.1
2018-Apr-20 02:29 196 1 gusting 2 11.1
2018-Apr-20 02:24 196 1 gusting 2 11.1
2018-Apr-20 02:19 196 1 gusting 3 11.1
2018-Apr-20 02:13 196 1 gusting 3 11.1
2018-Apr-20 02:08 196 1 gusting 3 11.1
2018-Apr-20 02:04 196 1 gusting 3 11.1
2018-Apr-20 01:59 196 0 gusting 3 11.1
2018-Apr-20 01:54 196 1 gusting 3 11.1
2018-Apr-20 01:49 196 2 gusting 3 11.1
2018-Apr-20 01:44 196 2 gusting 3 11.1
2018-Apr-20 01:39 196 1 gusting 3 11.1
2018-Apr-20 01:34 196 2 gusting 3 11.1
2018-Apr-20 01:29 196 2 gusting 3 11.1
2018-Apr-20 01:24 196 2 gusting 4 11.7
2018-Apr-20 01:19 196 2 gusting 4 11.7
2018-Apr-20 01:14 196 2 gusting 3 11.7
2018-Apr-20 01:08 196 2 gusting 3 11.7
2018-Apr-20 01:04 196 0 gusting 2 11.7
2018-Apr-20 00:59 196 0 gusting 3 11.7
2018-Apr-20 00:53 196 0 gusting 3 11.7
2018-Apr-20 00:48 196 2 gusting 3 11.7
2018-Apr-20 00:43 196 1 gusting 3 11.7
2018-Apr-20 00:38 196 1 gusting 3 11.7
2018-Apr-20 00:33 196 2 gusting 4 11.7
2018-Apr-20 00:29 196 2 gusting 4 11.7
2018-Apr-20 00:24 196 1 gusting 3 11.7
2018-Apr-20 00:19 196 2 gusting 3 11.7
2018-Apr-20 00:14 196 2 gusting 3 11.7
2018-Apr-20 00:08 196 1 gusting 3 11.7
2018-Apr-20 00:04 196 1 gusting 3 11.7
2018-Apr-19 23:59 196 1 gusting 3 11.7
2018-Apr-19 23:54 196 2 gusting 4 11.7
2018-Apr-19 23:48 196 2 gusting 4 11.7
2018-Apr-19 23:43 196 2 gusting 3 12.2
2018-Apr-19 23:38 196 2 gusting 3 12.2
2018-Apr-19 23:33 196 1 gusting 3 12.2
2018-Apr-19 23:28 196 2 gusting 4 12.2
2018-Apr-19 23:23 196 2 gusting 4 12.2
2018-Apr-19 23:18 196 2 gusting 4 12.2
2018-Apr-19 23:13 190 1 gusting 4 12.8
2018-Apr-19 23:09 190 1 gusting 4 12.8
2018-Apr-19 23:04 190 2 gusting 4 12.8
2018-Apr-19 22:59 186 2 gusting 4 12.8
2018-Apr-19 22:53 181 1 gusting 3 12.8
2018-Apr-19 22:48 181 1 gusting 2 12.8
2018-Apr-19 22:43 181 1 gusting 3 12.8
2018-Apr-19 22:38 181 0 gusting 3 13.3
2018-Apr-19 22:34 181 1 gusting 4 13.3
2018-Apr-19 22:29 181 2 gusting 4 13.3
2018-Apr-19 22:24 188 284 gusting 284 13.3
2018-Apr-19 22:19 180 2 gusting 3 13.3
2018-Apr-19 22:08 184 2 gusting 3 13.9
2018-Apr-19 22:03 184 1 gusting 6 13.9
2018-Apr-19 21:58 184 3 gusting 6 13.9
2018-Apr-19 21:49 182 2 gusting 4 13.9
2018-Apr-19 21:44 190 2 gusting 3 13.9
2018-Apr-19 21:38 199 1 gusting 3 13.9
2018-Apr-19 21:33 181 2 gusting 3 13.9
2018-Apr-19 21:29 181 2 gusting 4 13.9
2018-Apr-19 21:24 181 2 gusting 4 13.9
2018-Apr-19 21:19 190 1 gusting 3 14.4
2018-Apr-19 21:14 190 1 gusting 3 14.4
2018-Apr-19 21:09 190 2 gusting 3 14.4
2018-Apr-19 21:03 190 2 gusting 3 14.4
2018-Apr-19 20:58 190 2 gusting 2 14.4
2018-Apr-19 20:54 190 1 gusting 3 14.4
2018-Apr-19 20:49 190 2 gusting 3 14.4
2018-Apr-19 20:44 190 2 gusting 3 15.0
2018-Apr-19 20:39 190 1 gusting 3 15.0
2018-Apr-19 20:34 190 1 gusting 3 15.0
2018-Apr-19 20:28 190 2 gusting 3 15.0
2018-Apr-19 20:23 190 1 gusting 3 15.0
2018-Apr-19 20:19 190 1 gusting 3 15.6
2018-Apr-19 20:08 190 2 gusting 3 15.6
2018-Apr-19 20:03 190 2 gusting 3 15.6
2018-Apr-19 19:53 190 2 gusting 3 16.1
2018-Apr-19 19:48 190 1 gusting 4 16.1
2018-Apr-19 19:38 213 2 gusting 3 16.7
2018-Apr-19 19:33 213 1 16.7
2018-Apr-19 19:28 213 1 gusting 2 16.7
2018-Apr-19 19:23 327 0 gusting 2 17.2
2018-Apr-19 19:19 326 1 gusting 2 17.2
2018-Apr-19 19:14 326 1 gusting 2 17.2
2018-Apr-19 19:08 327 17.8
2018-Apr-19 19:03 327 17.8
2018-Apr-19 18:54 327 18.3
2018-Apr-19 18:48 326 18.3
2018-Apr-19 18:39 327 18.9
2018-Apr-19 18:34 327 18.9
2018-Apr-19 18:14 327 18.9
2018-Apr-19 18:08 327 0 gusting 2 18.9
2018-Apr-19 18:03 327 19.4
2018-Apr-19 17:58 326 1 gusting 3 19.4
2018-Apr-19 17:54 326 1 gusting 3 19.4
2018-Apr-19 17:49 338 1 gusting 3 20.0
2018-Apr-19 17:43 338 2 gusting 4 20.0
2018-Apr-19 17:39 331 2 gusting 3 20.0
2018-Apr-19 17:34 331 20.0
2018-Apr-19 17:29 331 1 gusting 4 20.6
2018-Apr-19 17:19 350 3 gusting 5 20.6
2018-Apr-19 17:14 333 2 gusting 5 20.6
2018-Apr-19 17:09 355 2 gusting 4 20.6
2018-Apr-19 17:03 325 3 gusting 5 20.6
2018-Apr-19 16:58 302 3 gusting 6 20.6
2018-Apr-19 16:49 316 3 gusting 6 21.1
2018-Apr-19 16:43 330 2 gusting 5 21.1
2018-Apr-19 16:38 298 1 gusting 4 21.1
2018-Apr-19 16:33 337 2 gusting 6 21.1
2018-Apr-19 16:24 319 3 gusting 6 21.1
2018-Apr-19 16:18 337 4 gusting 5 21.1
2018-Apr-19 16:04 332 3 gusting 6 21.1
2018-Apr-19 15:58 311 4 gusting 6 21.7
2018-Apr-19 15:53 349 284 gusting 284 21.7
2018-Apr-19 15:38 325 2 gusting 4 22.2
2018-Apr-19 15:29 345 2 gusting 6 21.7
2018-Apr-19 15:23 355 2 gusting 6 21.7
2018-Apr-19 15:14 355 1 gusting 4 21.7
2018-Apr-19 15:08 308 2 gusting 4 21.7
2018-Apr-19 14:59 355 2 gusting 4 21.7
2018-Apr-19 14:48 337 2 gusting 5 21.7
2018-Apr-19 14:44 009 2 21.7
2018-Apr-19 14:39 360 2 21.1
2018-Apr-19 14:33 360 2 gusting 5 21.1
2018-Apr-19 14:29 038 3 gusting 6 21.7
2018-Apr-19 14:24 027 3 gusting 6 21.7
2018-Apr-19 14:19 360 3 gusting 6 21.1
2018-Apr-19 14:13 021 5 gusting 7 21.1
2018-Apr-19 14:08 048 4 gusting 8 21.1
2018-Apr-19 14:03 355 6 gusting 8 21.1
2018-Apr-19 13:59 053 6 gusting 7 21.7
2018-Apr-19 13:53 030 5 gusting 8 21.7
2018-Apr-19 13:48 033 5 gusting 9 21.7
2018-Apr-19 13:44 034 5 gusting 9 21.7
2018-Apr-19 13:39 028 5 gusting 9 21.1
2018-Apr-19 13:29 034 4 21.1
2018-Apr-19 13:18 346 5 gusting 10 20.6
2018-Apr-19 13:14 021 7 gusting 10 20.6
2018-Apr-19 13:09 005 6 gusting 12 20.6
2018-Apr-19 13:03 341 7 gusting 12 20.6